Zurück zum Katalog

FENGYUN 1C DEB

AktivPO
NORAD 32314·DEBRIS·🇨🇳 China

Gestartet May 10, 1999 von Taiyuan Satellite Launch Center

Loading…

Nächste Überflüge (nächste 24 Stunden)

TLE

AktuellSource: Space-Track

Epoche: Sep 12, 2026, 20:10 UTC

1 32314U 99025CXF 26255.84032194  .00003621  00000-0  37089-3 0  9991
2 32314  98.8876  35.6225 0135874   8.9730 351.3863 14.84625900 14518

Verfolge FENGYUN 1C DEB in Echtzeit mit AllMySat

Download on the App Store